Tracking 30995 objects as of 5-Jul-2025
HD Live streaming from Space Station
objects crossing your sky now

SL-16 DEB

Track SL-16 DEB now!
10-day predictions


NORAD ID: 28357
Int'l Code: 2004-021F
Perigee: 846.5 km
Apogee: 1,142.1 km
Inclination: 71.1 °
Period: 104.8 minutes
Semi major axis: 7365 km
RCS: 0.0866 m2 (small)
Launch date: June 10, 2004
Source: Commonwealth of Independent States (former USSR) (CIS)
Launch site: TYURATAM MISSILE AND SPACE COMPLEX (TTMTR)

Note: This is SATELLITE DEBRIS
Your satellite tracking list
ARIANE 44LP+ R/B
Track 1 satellite(s)




NASA's NSSDC Master Catalog

Two Line Element Set (TLE):
1 28357U 04021F   25185.96872177 -.00000015  00000-0  25954-4 0  9996
2 28357  71.0728  79.4881 0200700 229.7447 147.7256 13.73461263 55203
Source of the keplerian elements: AFSPC